Terminal Aerodrome Forecast
Issued by NWS

Home | Current Version | Previous Version | Graphics & Text | Print | Product List | Glossary On
Versions: 1 2 3 4 5 6 7 8 9 10 11 12 13 14 15 16 17
000
FTUS43 KGRB 252325
TAFMTW
TAF
KMTW 252325Z 2600/2624 06009KT P6SM SCT025 BKN070
      TEMPO 2600/2603 3SM TSRA SCT025 OVC035CB
     FM260300 18005KT 5SM BR SCT020 BKN035
     FM261000 18004KT 3SM BR BKN010
     FM261500 21010G17KT P6SM SCT030 BKN040 PROB30 2615/2618 -SHRA
      BKN030=

USA.gov is the U.S. government's official web portal to all federal, state and local government web resources and services.